WZZ8745 EPKK-ENBR

Flight info

Callsign WZZ8745
Flight time N/A
Altitude 36000
Route LUMVE L619 NUDRO T710 KULUV DCT NAVDI DCT ALUKA DCT NEDIK DCT ODDON M602 LUTUS DCT PEVEB DCT BADAB
Aircraft A21N/M-SDE1E2E3FGIJ1J4RWXY/LB1

Departure

Time 2026-05-03 22:20
Airport Kraków John Paul II International Airport (EPKK)

Arrival

Time N/A
Airport Bergen Airport, Flesland (ENBR)
Time Latitude Longitude Altitude Speed Heading
2026-05-03 21:55 50.07495 19.79832 800 ft 0 kts 258°
2026-05-03 22:15 50.07495 19.79831 800 ft 0 kts 258°
2026-05-03 22:15 50.07493 19.79819 800 ft 2 kts 258°
2026-05-03 22:15 50.07489 19.79785 800 ft 4 kts 263°
2026-05-03 22:15 50.07520 19.79738 800 ft 6 kts 345°
2026-05-03 22:16 50.07554 19.79726 800 ft 8 kts 347°
2026-05-03 22:16 50.07628 19.79700 800 ft 12 kts 347°
2026-05-03 22:16 50.07700 19.79741 800 ft 12 kts 75°
2026-05-03 22:16 50.07715 19.79875 800 ft 12 kts 81°
2026-05-03 22:17 50.07733 19.80012 800 ft 13 kts 77°
2026-05-03 22:17 50.07760 19.80203 800 ft 13 kts 76°
2026-05-03 22:17 50.07796 19.80335 800 ft 13 kts 30°
2026-05-03 22:17 50.07829 19.80335 800 ft 0 kts 347°
2026-05-03 22:18 50.07835 19.80333 800 ft 1 kts 347°
2026-05-03 22:18 50.07849 19.80328 800 ft 2 kts 347°
2026-05-03 22:18 50.07872 19.80320 800 ft 4 kts 347°
2026-05-03 22:19 50.07909 19.80308 800 ft 6 kts 349°
2026-05-03 22:19 50.07968 19.80289 800 ft 10 kts 347°
2026-05-03 22:19 50.08010 19.80198 800 ft 13 kts 256°
2026-05-03 22:19 50.07982 19.80011 800 ft 36 kts 258°
2026-05-03 22:20 50.07872 19.79203 800 ft 112 kts 258°
2026-05-03 22:20 50.07659 19.77703 837 ft 166 kts 257°
2026-05-03 22:20 50.07401 19.75918 1420 ft 171 kts 258°
2026-05-03 22:20 50.07147 19.74118 2186 ft 172 kts 257°
2026-05-03 22:21 50.06825 19.71750 3140 ft 170 kts 256°
2026-05-03 22:21 50.06649 19.70521 3364 ft 178 kts 255°
2026-05-03 22:21 50.06275 19.67871 3770 ft 200 kts 256°
2026-05-03 22:21 50.06072 19.66416 3985 ft 211 kts 256°
2026-05-03 22:22 50.05754 19.64105 4340 ft 227 kts 257°
2026-05-03 22:22 50.05394 19.61596 4622 ft 248 kts 257°
2026-05-03 22:22 50.05016 19.58898 5008 ft 266 kts 257°
2026-05-03 22:22 50.04619 19.56052 5677 ft 273 kts 256°
2026-05-03 22:23 50.04217 19.53182 6494 ft 274 kts 256°
2026-05-03 22:23 50.03808 19.50299 7274 ft 276 kts 256°
2026-05-03 22:23 50.03393 19.47396 8007 ft 279 kts 256°
2026-05-03 22:23 50.02859 19.43457 8970 ft 284 kts 262°
2026-05-03 22:24 50.02839 19.41423 9426 ft 288 kts 275°
2026-05-03 22:24 50.03344 19.38425 10122 ft 293 kts 291°
2026-05-03 22:24 50.04155 19.35479 10680 ft 302 kts 293°
2026-05-03 22:24 50.05045 19.32378 11125 ft 313 kts 292°
2026-05-03 22:25 50.05929 19.29286 11791 ft 316 kts 292°
2026-05-03 22:25 50.06820 19.26133 12493 ft 318 kts 292°
2026-05-03 22:25 50.07704 19.22975 13172 ft 320 kts 292°
2026-05-03 22:25 50.08896 19.18688 14036 ft 323 kts 292°
2026-05-03 22:26 50.09495 19.16522 14456 ft 325 kts 292°
2026-05-03 22:26 50.10395 19.13262 15062 ft 328 kts 292°
2026-05-03 22:26 50.11286 19.10031 15655 ft 331 kts 292°
2026-05-03 22:26 50.12201 19.06705 16278 ft 332 kts 292°
2026-05-03 22:27 50.13411 19.02296 17023 ft 336 kts 292°
2026-05-03 22:27 50.14337 18.98922 17577 ft 338 kts 292°
2026-05-03 22:27 50.14954 18.96673 17966 ft 339 kts 292°
2026-05-03 22:27 50.16180 18.92195 18708 ft 341 kts 292°
2026-05-03 22:28 50.16802 18.89918 19055 ft 343 kts 292°
2026-05-03 22:28 50.17748 18.86450 19579 ft 345 kts 292°
2026-05-03 22:28 50.18687 18.83001 20085 ft 348 kts 292°
2026-05-03 22:28 50.19632 18.79524 20584 ft 350 kts 292°
2026-05-03 22:29 50.20588 18.76002 21079 ft 352 kts 293°
2026-05-03 22:29 50.21861 18.71312 21723 ft 354 kts 294°
2026-05-03 22:29 50.22617 18.69036 21992 ft 357 kts 304°
2026-05-03 22:29 50.24316 18.66210 22400 ft 360 kts 322°
2026-05-03 22:30 50.27305 18.63783 23010 ft 363 kts 336°
2026-05-03 22:30 50.28851 18.62775 23304 ft 364 kts 337°
2026-05-03 22:30 50.31203 18.61252 23726 ft 367 kts 337°
2026-05-03 22:30 50.33593 18.59696 24150 ft 369 kts 336°
2026-05-03 22:31 50.35949 18.58149 24539 ft 371 kts 336°
2026-05-03 22:31 50.38338 18.56571 24930 ft 373 kts 336°
2026-05-03 22:31 50.40740 18.54978 25316 ft 375 kts 336°
2026-05-03 22:31 50.43162 18.53367 25693 ft 377 kts 336°
2026-05-03 22:32 50.45605 18.51740 26058 ft 379 kts 336°
2026-05-03 22:32 50.48035 18.50118 26413 ft 381 kts 336°
2026-05-03 22:32 50.50496 18.48473 26761 ft 383 kts 336°
2026-05-03 22:32 50.52955 18.46829 27100 ft 385 kts 337°
2026-05-03 22:33 50.55405 18.45109 27429 ft 387 kts 333°
2026-05-03 22:33 50.57769 18.43021 27761 ft 389 kts 328°
2026-05-03 22:33 50.60024 18.40526 28093 ft 390 kts 323°
2026-05-03 22:33 50.62145 18.37867 28409 ft 392 kts 321°
2026-05-03 22:34 50.64267 18.35139 28714 ft 395 kts 321°
2026-05-03 22:34 50.66426 18.32358 29023 ft 397 kts 321°
2026-05-03 22:34 50.68569 18.29606 29324 ft 399 kts 321°
2026-05-03 22:34 50.70682 18.26815 29620 ft 401 kts 319°
2026-05-03 22:35 50.72733 18.23780 29914 ft 403 kts 315°
2026-05-03 22:35 50.74645 18.20590 30204 ft 405 kts 311°
2026-05-03 22:35 50.76485 18.17116 30493 ft 407 kts 308°
2026-05-03 22:35 50.78797 18.12355 30893 ft 410 kts 307°
2026-05-03 22:36 50.79944 18.09959 31088 ft 411 kts 307°
2026-05-03 22:36 50.81645 18.06398 31373 ft 412 kts 307°
2026-05-03 22:36 50.83388 18.02751 31649 ft 414 kts 307°
2026-05-03 22:36 50.85125 17.99113 31909 ft 416 kts 307°
2026-05-03 22:37 50.86882 17.95432 32170 ft 418 kts 307°
2026-05-03 22:37 50.88632 17.91763 32436 ft 420 kts 308°
2026-05-03 22:37 50.90403 17.88046 32691 ft 422 kts 307°
2026-05-03 22:37 50.92769 17.83073 33031 ft 424 kts 307°
2026-05-03 22:38 50.93933 17.80622 33187 ft 425 kts 307°
2026-05-03 22:38 50.95711 17.76877 33437 ft 426 kts 307°
2026-05-03 22:38 50.97489 17.73124 33666 ft 428 kts 307°
2026-05-03 22:38 50.99304 17.69288 33903 ft 429 kts 307°
2026-05-03 22:39 51.01092 17.65503 34197 ft 429 kts 307°
2026-05-03 22:39 51.02877 17.61717 34492 ft 429 kts 307°
2026-05-03 22:39 51.04657 17.57938 34737 ft 429 kts 307°
2026-05-03 22:39 51.06453 17.54120 34941 ft 430 kts 307°
2026-05-03 22:40 51.08840 17.49033 35221 ft 431 kts 307°
2026-05-03 22:40 51.10014 17.46525 35360 ft 431 kts 307°
2026-05-03 22:40 51.11804 17.42705 35565 ft 432 kts 307°
2026-05-03 22:40 51.13633 17.38801 35741 ft 432 kts 307°
2026-05-03 22:41 51.15528 17.35000 35912 ft 433 kts 310°
2026-05-03 22:41 51.19682 17.27943 35965 ft 435 kts 316°
2026-05-03 22:42 51.24127 17.21346 35969 ft 435 kts 316°
2026-05-03 22:42 51.28537 17.14714 35965 ft 435 kts 314°
2026-05-03 22:43 51.32512 17.07495 35962 ft 435 kts 307°
2026-05-03 22:43 51.36076 16.99676 35957 ft 434 kts 304°
2026-05-03 22:44 51.39559 16.91771 35955 ft 436 kts 304°
2026-05-03 22:44 51.41767 16.86761 35953 ft 442 kts 304°
2026-05-03 22:45 51.45108 16.79170 35947 ft 449 kts 304°
2026-05-03 22:45 51.48698 16.70999 35944 ft 451 kts 304°
2026-05-03 22:46 51.52324 16.62701 35941 ft 452 kts 304°
2026-05-03 22:46 51.55922 16.54432 35940 ft 452 kts 304°
2026-05-03 22:47 51.59517 16.46135 35940 ft 452 kts 304°
2026-05-03 22:47 51.63177 16.37951 35933 ft 453 kts 307°
2026-05-03 22:48 51.67379 16.30212 35931 ft 454 kts 313°
2026-05-03 22:48 51.71965 16.23157 35929 ft 455 kts 315°
2026-05-03 22:49 51.76616 16.16212 35931 ft 455 kts 315°
2026-05-03 22:49 51.81260 16.09250 35938 ft 456 kts 315°
2026-05-03 22:50 51.85907 16.02250 35940 ft 456 kts 315°
2026-05-03 22:50 51.90552 15.95226 35939 ft 457 kts 315°
2026-05-03 22:51 51.95199 15.88182 35936 ft 458 kts 315°
2026-05-03 22:51 51.99852 15.81106 35925 ft 458 kts 315°
2026-05-03 22:52 52.04504 15.74006 35919 ft 458 kts 315°
2026-05-03 22:52 52.09164 15.66874 35921 ft 457 kts 315°
2026-05-03 22:53 52.13785 15.59778 35919 ft 457 kts 314°
2026-05-03 22:53 52.18416 15.52644 35923 ft 458 kts 314°
2026-05-03 22:54 52.23044 15.45496 35920 ft 458 kts 314°
2026-05-03 22:54 52.27710 15.38267 35919 ft 458 kts 314°
2026-05-03 22:55 52.32348 15.31062 35917 ft 458 kts 313°
2026-05-03 22:55 52.36979 15.23846 35913 ft 458 kts 313°
2026-05-03 22:56 52.41569 15.16667 35905 ft 458 kts 313°
2026-05-03 22:56 52.46176 15.09441 35898 ft 458 kts 313°
2026-05-03 22:57 52.50773 15.02210 35890 ft 458 kts 313°
2026-05-03 22:57 52.55184 14.94670 35885 ft 456 kts 309°
2026-05-03 22:58 52.59421 14.86953 35887 ft 457 kts 309°
2026-05-03 22:58 52.63685 14.79150 35882 ft 456 kts 309°
2026-05-03 22:59 52.67912 14.71403 35883 ft 456 kts 309°
2026-05-03 22:59 52.72158 14.63602 35884 ft 456 kts 309°
2026-05-03 23:00 52.76403 14.55775 35887 ft 456 kts 309°
2026-05-03 23:00 52.80654 14.47915 35891 ft 456 kts 309°
2026-05-03 23:01 52.84908 14.40020 35895 ft 457 kts 309°
2026-05-03 23:01 52.89198 14.32306 35896 ft 458 kts 311°
2026-05-03 23:02 52.93993 14.25170 35900 ft 461 kts 316°
2026-05-03 23:02 52.98948 14.18483 35898 ft 461 kts 317°
2026-05-03 23:03 53.03954 14.11744 35899 ft 460 kts 317°
2026-05-03 23:03 53.08926 14.05014 35898 ft 459 kts 317°
2026-05-03 23:04 53.13895 13.98257 35903 ft 460 kts 316°
2026-05-03 23:04 53.18853 13.91491 35900 ft 461 kts 316°
2026-05-03 23:05 53.23800 13.84719 35895 ft 461 kts 316°
2026-05-03 23:05 53.28780 13.77882 35892 ft 462 kts 316°
2026-05-03 23:06 53.33737 13.71054 35890 ft 462 kts 316°
2026-05-03 23:06 53.38695 13.64204 35885 ft 462 kts 316°
2026-05-03 23:07 53.43646 13.57340 35884 ft 462 kts 316°
2026-05-03 23:07 53.48588 13.50468 35889 ft 462 kts 316°
2026-05-03 23:08 53.53524 13.43585 35884 ft 462 kts 316°
2026-05-03 23:08 53.58499 13.36624 35883 ft 463 kts 316°
2026-05-03 23:09 53.63449 13.29677 35876 ft 463 kts 315°
2026-05-03 23:09 53.68389 13.22720 35875 ft 463 kts 315°
2026-05-03 23:10 53.73333 13.15738 35872 ft 463 kts 315°
2026-05-03 23:10 53.78298 13.08703 35870 ft 463 kts 315°
2026-05-03 23:11 53.83242 13.01673 35870 ft 463 kts 315°
2026-05-03 23:11 53.88174 12.94639 35866 ft 464 kts 315°
2026-05-03 23:12 53.93122 12.87559 35862 ft 465 kts 315°
2026-05-03 23:12 53.98059 12.80473 35858 ft 465 kts 315°
2026-05-03 23:13 54.02997 12.73363 35851 ft 466 kts 315°
2026-05-03 23:13 54.07943 12.66218 35845 ft 465 kts 315°
2026-05-03 23:14 54.12888 12.59053 35837 ft 465 kts 314°
2026-05-03 23:14 54.17833 12.51864 35838 ft 465 kts 314°
2026-05-03 23:15 54.22750 12.44689 35832 ft 465 kts 314°
2026-05-03 23:15 54.27656 12.37507 35827 ft 466 kts 314°
2026-05-03 23:16 54.32604 12.30241 35826 ft 466 kts 313°
2026-05-03 23:16 54.37509 12.23014 35823 ft 466 kts 313°
2026-05-03 23:17 54.42444 12.15720 35823 ft 467 kts 313°
2026-05-03 23:17 54.47335 12.08477 35820 ft 468 kts 314°
2026-05-03 23:18 54.52512 12.01640 35819 ft 471 kts 318°
2026-05-03 23:18 54.57806 11.95036 35815 ft 472 kts 318°
2026-05-03 23:19 54.63069 11.88456 35816 ft 471 kts 318°
2026-05-03 23:19 54.68362 11.81801 35814 ft 471 kts 318°
2026-05-03 23:20 54.73651 11.75122 35816 ft 471 kts 318°
2026-05-03 23:20 54.78930 11.68430 35812 ft 471 kts 318°
2026-05-03 23:21 54.84196 11.61733 35809 ft 471 kts 318°
2026-05-03 23:21 54.89437 11.55048 35805 ft 472 kts 318°
2026-05-03 23:22 54.97398 11.44844 35799 ft 472 kts 317°
2026-05-03 23:22 55.02666 11.38065 35798 ft 473 kts 317°
2026-05-03 23:23 55.07983 11.31203 35793 ft 472 kts 317°
2026-05-03 23:23 55.13285 11.24334 35794 ft 472 kts 317°
2026-05-03 23:24 55.18590 11.17438 35797 ft 473 kts 316°
2026-05-03 23:24 55.23859 11.10565 35793 ft 473 kts 316°
2026-05-03 23:25 55.29117 11.03683 35794 ft 474 kts 316°
2026-05-03 23:25 55.34394 10.96753 35793 ft 474 kts 316°
2026-05-03 23:26 55.39664 10.89809 35795 ft 473 kts 316°
2026-05-03 23:26 55.44896 10.82889 35798 ft 473 kts 316°
2026-05-03 23:27 55.50147 10.75923 35797 ft 474 kts 316°
2026-05-03 23:27 55.55358 10.68982 35795 ft 473 kts 316°
2026-05-03 23:28 55.60631 10.62063 35799 ft 475 kts 318°
2026-05-03 23:28 55.66031 10.55355 35803 ft 475 kts 319°
2026-05-03 23:29 55.71428 10.48632 35798 ft 474 kts 319°
2026-05-03 23:29 55.76821 10.41863 35806 ft 475 kts 319°
2026-05-03 23:30 55.82196 10.35075 35793 ft 473 kts 319°
2026-05-03 23:30 55.87587 10.28245 35794 ft 472 kts 317°
2026-05-03 23:31 55.92936 10.21439 35792 ft 473 kts 317°
2026-05-03 23:31 55.98264 10.14638 35789 ft 473 kts 317°
2026-05-03 23:32 56.03607 10.07793 35792 ft 473 kts 318°
2026-05-03 23:32 56.08952 10.00921 35788 ft 472 kts 318°
2026-05-03 23:33 56.14354 9.94148 35788 ft 473 kts 320°
2026-05-03 23:33 56.19805 9.87477 35783 ft 473 kts 319°
2026-05-03 23:34 56.25209 9.80828 35777 ft 473 kts 319°
2026-05-03 23:34 56.30620 9.74123 35784 ft 473 kts 319°
2026-05-03 23:35 56.35995 9.67437 35782 ft 472 kts 320°
2026-05-03 23:35 56.41409 9.60675 35781 ft 472 kts 320°
2026-05-03 23:36 56.46754 9.53976 35792 ft 472 kts 320°
2026-05-03 23:36 56.52137 9.47207 35789 ft 471 kts 320°
2026-05-03 23:37 56.57499 9.40442 35795 ft 471 kts 320°
2026-05-03 23:37 56.62862 9.33647 35805 ft 471 kts 319°
2026-05-03 23:38 56.68176 9.26894 35804 ft 470 kts 319°
2026-05-03 23:38 56.73509 9.20090 35805 ft 470 kts 319°
2026-05-03 23:39 56.78852 9.13250 36109 ft 470 kts 319°
2026-05-03 23:39 56.81499 9.09852 35943 ft 468 kts 319°
2026-05-03 23:39 56.84162 9.06429 35879 ft 468 kts 319°
2026-05-03 23:40 56.89460 8.99598 35835 ft 469 kts 319°
2026-05-03 23:40 56.94781 8.92711 35816 ft 469 kts 319°
2026-05-03 23:41 57.00094 8.85817 35808 ft 469 kts 319°
2026-05-03 23:41 57.05390 8.78917 35804 ft 469 kts 319°
2026-05-03 23:42 57.10699 8.71978 35811 ft 468 kts 319°
2026-05-03 23:42 57.16067 8.64932 35803 ft 468 kts 319°
2026-05-03 23:43 57.21357 8.57965 35797 ft 468 kts 319°
2026-05-03 23:43 57.26619 8.51007 35789 ft 467 kts 319°
2026-05-03 23:44 57.31921 8.43973 35793 ft 467 kts 319°
2026-05-03 23:44 57.37163 8.36990 35790 ft 467 kts 319°
2026-05-03 23:45 57.42469 8.29902 35786 ft 466 kts 319°
2026-05-03 23:45 57.47707 8.22877 35787 ft 466 kts 319°
2026-05-03 23:46 57.52931 8.15846 35780 ft 466 kts 319°
2026-05-03 23:46 57.58157 8.08789 35772 ft 465 kts 319°
2026-05-03 23:47 57.63372 8.01716 35767 ft 464 kts 319°
2026-05-03 23:47 57.68591 7.94615 35761 ft 464 kts 319°
2026-05-03 23:48 57.73785 7.87521 35767 ft 464 kts 319°
2026-05-03 23:48 57.78955 7.80433 35758 ft 463 kts 319°
2026-05-03 23:49 57.84094 7.73363 35755 ft 464 kts 319°
2026-05-03 23:49 57.89264 7.66226 35758 ft 463 kts 319°
2026-05-03 23:50 57.94449 7.59042 35756 ft 463 kts 319°
2026-05-03 23:50 57.99635 7.51829 35759 ft 462 kts 319°
2026-05-03 23:51 58.04846 7.44557 35762 ft 462 kts 319°
2026-05-03 23:51 58.10023 7.37304 35764 ft 462 kts 319°
2026-05-03 23:52 58.15194 7.30034 35772 ft 461 kts 318°
2026-05-03 23:52 58.20378 7.22713 35776 ft 460 kts 318°
2026-05-03 23:53 58.25524 7.15425 35780 ft 459 kts 318°
2026-05-03 23:53 58.30669 7.08106 35782 ft 459 kts 318°
2026-05-03 23:54 58.35804 7.00774 35776 ft 459 kts 318°
2026-05-03 23:54 58.40916 6.93454 35778 ft 459 kts 318°
2026-05-03 23:55 58.45985 6.86158 35778 ft 459 kts 318°
2026-05-03 23:55 58.51083 6.78925 35776 ft 460 kts 320°
2026-05-03 23:56 58.56338 6.71869 35783 ft 458 kts 320°
2026-05-03 23:56 58.58923 6.68417 35785 ft 446 kts 320°
2026-05-03 23:56 58.61462 6.65012 35787 ft 442 kts 320°
2026-05-03 23:57 58.66502 6.58209 35790 ft 441 kts 320°
2026-05-03 23:57 58.71517 6.51411 35782 ft 441 kts 320°
2026-05-03 23:58 58.76557 6.44557 35770 ft 441 kts 320°
2026-05-03 23:58 58.81573 6.37710 35772 ft 440 kts 320°
2026-05-03 23:59 58.86553 6.30886 35485 ft 444 kts 319°
2026-05-03 23:59 58.89101 6.27384 34819 ft 448 kts 319°
2026-05-03 23:59 58.91614 6.23922 34145 ft 453 kts 319°
2026-05-04 00:00 58.94183 6.20371 33478 ft 459 kts 320°
2026-05-04 00:00 58.96780 6.16779 32982 ft 460 kts 320°
2026-05-04 00:00 58.99396 6.13158 32465 ft 461 kts 320°
2026-05-04 00:00 59.01997 6.09552 31926 ft 462 kts 320°
2026-05-04 00:01 59.04692 6.06160 31416 ft 465 kts 326°
2026-05-04 00:01 59.07585 6.03350 30925 ft 469 kts 333°
2026-05-04 00:01 59.10669 6.01166 30338 ft 474 kts 339°
2026-05-04 00:01 59.13918 5.99625 29793 ft 478 kts 344°
2026-05-04 00:02 59.17204 5.98351 29278 ft 480 kts 345°
2026-05-04 00:02 59.20509 5.97134 28753 ft 482 kts 345°
2026-05-04 00:02 59.23833 5.95912 28223 ft 483 kts 345°
2026-05-04 00:02 59.27149 5.94676 27695 ft 485 kts 344°
2026-05-04 00:03 59.30429 5.93436 27173 ft 487 kts 344°
2026-05-04 00:03 59.33803 5.92148 26637 ft 488 kts 344°
2026-05-04 00:03 59.36649 5.91052 26178 ft 490 kts 344°